| time (UTC) | temp C | wind direction | speed KPH | gust KPH | rain 1hr cm | rain 24hr cm | rain mn cm | humidity % | barometer mb |
| 20260509051419 | 10 | 235 | 8.0 | 12.9 | 0.00 | 0.00 | 0.00 | 72 | 1012.7 |
| 20260509051316 | 10 | 240 | 6.4 | 12.9 | 0.00 | 0.00 | 0.00 | 71 | 1012.7 |
| 20260509050427 | 10 | 242 | 6.4 | 11.3 | 0.00 | 0.00 | 0.00 | 69 | 1012.8 |
| 20260509050320 | 10 | 230 | 8.0 | 11.3 | 0.00 | 0.00 | 0.00 | 69 | 1012.7 |
| 20260509045432 | 11 | 215 | 6.4 | 8.0 | 0.00 | 0.00 | 0.00 | 65 | 1012.8 |
| 20260509045322 | 11 | 221 | 6.4 | 8.0 | 0.00 | 0.00 | 0.00 | 65 | 1012.8 |
| 20260509044413 | 11 | 213 | 4.8 | 6.4 | 0.00 | 0.00 | 0.00 | 64 | 1012.8 |
| 20260509044326 | 11 | 204 | 4.8 | 6.4 | 0.00 | 0.00 | 0.00 | 64 | 1012.8 |
| 20260509043416 | 11 | 205 | 6.4 | 8.0 | 0.00 | 0.00 | 0.00 | 65 | 1012.8 |
| 20260509043310 | 11 | 210 | 6.4 | 8.0 | 0.00 | 0.00 | 0.00 | 65 | 1012.8 |
| 20260509042422 | 12 | 215 | 6.4 | 9.7 | 0.00 | 0.00 | 0.00 | 64 | 1013.0 |
| 20260509042318 | 12 | 217 | 6.4 | 9.7 | 0.00 | 0.00 | 0.00 | 63 | 1013.0 |
| 20260509041431 | 13 | 203 | 4.8 | 8.0 | 0.00 | 0.00 | 0.00 | 58 | 1012.9 |
| 20260509041321 | 13 | 150 | 3.2 | 8.0 | 0.00 | 0.00 | 0.00 | 58 | 1012.9 |
| 20260509040412 | 13 | 157 | 4.8 | 6.4 | 0.00 | 0.00 | 0.00 | 56 | 1012.9 |
| 20260509040325 | 13 | 147 | 4.8 | 6.4 | 0.00 | 0.00 | 0.00 | 56 | 1012.8 |
| 20260509035435 | 12 | 187 | 3.2 | 4.8 | 0.00 | 0.00 | 0.00 | 58 | 1012.8 |
| 20260509035348 | 12 | 187 | 3.2 | 4.8 | 0.00 | 0.00 | 0.00 | 58 | 1012.9 |
| 20260509034418 | 12 | 187 | 3.2 | 6.4 | 0.00 | 0.00 | 0.00 | 60 | 1012.8 |
| 20260509034329 | 12 | 187 | 3.2 | 6.4 | 0.00 | 0.00 | 0.00 | 60 | 1012.8 |
| 20260509033420 | 12 | 146 | 1.6 | 4.8 | 0.00 | 0.00 | 0.00 | 62 | 1012.8 |
| 20260509033315 | 12 | 125 | 0.0 | 0.0 | 0.00 | 0.00 | 0.00 | 60 | 1012.7 |
| 20260509032427 | 12 | 125 | 0.0 | 0.0 | 0.00 | 0.00 | 0.00 | 63 | 1012.6 |
| 20260509032318 | 12 | 125 | 0.0 | 0.0 | 0.00 | 0.00 | 0.00 | 64 | 1012.7 |
| 20260509031410 | 12 | 125 | 0.0 | 0.0 | 0.00 | 0.00 | 0.00 | 57 | 1012.6 |
| 20260509031323 | 13 | 125 | 0.0 | 0.0 | 0.00 | 0.00 | 0.00 | 57 | 1012.5 |
| 20260509030413 | 12 | 125 | 0.0 | 0.0 | 0.00 | 0.00 | 0.00 | 59 | 1012.4 |
| 20260509030323 | 12 | 125 | 0.0 | 0.0 | 0.00 | 0.00 | 0.00 | 59 | 1012.4 |
| 20260509025435 | 13 | 125 | 0.0 | 0.0 | 0.00 | 0.00 | 0.00 | 65 | 1012.3 |
| 20260509025346 | 13 | 125 | 0.0 | 0.0 | 0.00 | 0.00 | 0.00 | 65 | 1012.4 |
| 20260509024418 | 13 | 56 | 0.0 | 0.0 | 0.00 | 0.00 | 0.00 | 59 | 1012.2 |
| 20260509024315 | 13 | 56 | 0.0 | 0.0 | 0.00 | 0.00 | 0.00 | 59 | 1012.2 |
| 20260509023447 | 13 | 17 | 0.0 | 0.0 | 0.00 | 0.00 | 0.00 | 59 | 1012.2 |
| 20260509023320 | 13 | 17 | 0.0 | 0.0 | 0.00 | 0.00 | 0.00 | 61 | 1012.2 |
| 20260509022410 | 14 | 17 | 0.0 | 0.0 | 0.00 | 0.00 | 0.00 | 65 | 1012.0 |
| 20260509022343 | 14 | 17 | 0.0 | 0.0 | 0.00 | 0.00 | 0.00 | 61 | 1012.0 |
| 20260509021413 | 15 | 17 | 0.0 | 1.6 | 0.00 | 0.00 | 0.00 | 62 | 1012.1 |
| 20260509021325 | 15 | 17 | 0.0 | 0.0 | 0.00 | 0.00 | 0.00 | 62 | 1012.1 |
| 20260509020418 | 16 | 17 | 0.0 | 3.2 | 0.00 | 0.00 | 0.00 | 58 | 1012.0 |
| 20260509020314 | 16 | 17 | 0.0 | 3.2 | 0.00 | 0.00 | 0.00 | 58 | 1011.9 |
| 20260509015427 | 17 | 16 | 3.2 | 3.2 | 0.00 | 0.00 | 0.00 | 48 | 1012.0 |
| 20260509015319 | 17 | 16 | 1.6 | 3.2 | 0.00 | 0.00 | 0.00 | 47 | 1011.9 |
| 20260509014410 | 17 | 355 | 1.6 | 4.8 | 0.00 | 0.00 | 0.00 | 46 | 1012.0 |
| 20260509014323 | 18 | 355 | 3.2 | 4.8 | 0.00 | 0.00 | 0.00 | 49 | 1012.0 |
| 20260509013433 | 18 | 338 | 1.6 | 4.8 | 0.00 | 0.00 | 0.00 | 48 | 1011.9 |
| 20260509013326 | 18 | 338 | 1.6 | 4.8 | 0.00 | 0.00 | 0.00 | 48 | 1011.9 |
| 20260509012418 | 19 | 350 | 0.0 | 0.0 | 0.00 | 0.00 | 0.00 | 47 | 1011.8 |
| 20260509012311 | 19 | 350 | 0.0 | 3.2 | 0.00 | 0.00 | 0.00 | 48 | 1011.8 |
| 20260509011422 | 20 | 344 | 1.6 | 6.4 | 0.00 | 0.00 | 0.00 | 43 | 1011.8 |
| 20260509011340 | 20 | 340 | 3.2 | 8.0 | 0.00 | 0.00 | 0.00 | 43 | 1011.8 |
| 20260509010430 | 20 | 331 | 8.0 | 9.7 | 0.00 | 0.00 | 0.00 | 43 | 1011.8 |
| 20260509010320 | 20 | 324 | 6.4 | 9.7 | 0.00 | 0.00 | 0.00 | 42 | 1011.8 |
| 20260509005431 | 21 | 319 | 3.2 | 9.7 | 0.00 | 0.00 | 0.00 | 39 | 1011.6 |
| 20260509005323 | 21 | 339 | 4.8 | 9.7 | 0.00 | 0.00 | 0.00 | 39 | 1011.6 |
| 20260509004411 | 21 | 336 | 4.8 | 9.7 | 0.00 | 0.00 | 0.00 | 36 | 1011.7 |
| 20260509004323 | 21 | 337 | 4.8 | 9.7 | 0.00 | 0.00 | 0.00 | 37 | 1011.6 |
| 20260509003434 | 22 | 360 | 3.2 | 8.0 | 0.00 | 0.00 | 0.00 | 37 | 1011.7 |
| 20260509003327 | 22 | 351 | 3.2 | 8.0 | 0.00 | 0.00 | 0.00 | 36 | 1011.7 |
| 20260509002436 | 22 | 46 | 6.4 | 14.5 | 0.00 | 0.00 | 0.00 | 36 | 1011.5 |
| 20260509002326 | 22 | 360 | 8.0 | 14.5 | 0.00 | 0.00 | 0.00 | 36 | 1011.5 |
| 20260509001437 | 22 | 338 | 8.0 | 16.1 | 0.00 | 0.00 | 0.00 | 36 | 1011.6 |
| 20260509001313 | 22 | 5 | 8.0 | 19.3 | 0.00 | 0.00 | 0.00 | 37 | 1011.6 |
| 20260509000425 | 22 | 360 | 14.5 | 24.1 | 0.00 | 0.00 | 0.00 | 36 | 1011.4 |
| 20260509000318 | 22 | 355 | 17.7 | 24.1 | 0.00 | 0.00 | 0.00 | 35 | 1011.4 |
| 20260508235451 | 22 | 38 | 16.1 | 24.1 | 0.00 | 0.00 | 0.00 | 36 | 1011.2 |
| 20260508235321 | 22 | 53 | 14.5 | 25.7 | 0.00 | 0.00 | 0.00 | 36 | 1011.2 |
| 20260508234432 | 22 | 34 | 14.5 | 29.0 | 0.00 | 0.00 | 0.00 | 35 | 1011.3 |
| 20260508234323 | 22 | 23 | 14.5 | 29.0 | 0.00 | 0.00 | 0.00 | 35 | 1011.3 |
| 20260508233412 | 22 | 48 | 14.5 | 27.4 | 0.00 | 0.00 | 0.00 | 37 | 1011.3 |
| 20260508233345 | 22 | 55 | 14.5 | 29.0 | 0.00 | 0.00 | 0.00 | 37 | 1011.3 |
| 20260508232416 | 23 | 36 | 12.9 | 24.1 | 0.00 | 0.00 | 0.00 | 36 | 1011.2 |
| 20260508232311 | 23 | 55 | 11.3 | 24.1 | 0.00 | 0.00 | 0.00 | 36 | 1011.2 |
| 20260508231442 | 23 | 344 | 19.3 | 25.7 | 0.00 | 0.00 | 0.00 | 37 | 1011.4 |
| 20260508231314 | 23 | 323 | 16.1 | 25.7 | 0.00 | 0.00 | 0.00 | 36 | 1011.4 |
| 20260508230427 | 23 | 9 | 11.3 | 24.1 | 0.00 | 0.00 | 0.00 | 36 | 1011.4 |
| 20260508230318 | 23 | 5 | 9.7 | 24.1 | 0.00 | 0.00 | 0.00 | 36 | 1011.4 |
| 20260508225429 | 23 | 355 | 17.7 | 25.7 | 0.00 | 0.00 | 0.00 | 36 | 1011.5 |
| 20260508225341 | 23 | 15 | 17.7 | 25.7 | 0.00 | 0.00 | 0.00 | 37 | 1011.4 |
| 20260508224412 | 22 | 340 | 12.9 | 22.5 | 0.00 | 0.00 | 0.00 | 37 | 1011.6 |
| 20260508224345 | 22 | 321 | 12.9 | 22.5 | 0.00 | 0.00 | 0.00 | 39 | 1011.6 |
| 20260508223416 | 23 | 26 | 11.3 | 25.7 | 0.00 | 0.00 | 0.00 | 38 | 1011.7 |
| 20260508223332 | 23 | 43 | 11.3 | 25.7 | 0.00 | 0.00 | 0.00 | 38 | 1011.6 |
| 20260508222421 | 23 | 322 | 17.7 | 27.4 | 0.00 | 0.00 | 0.00 | 38 | 1011.6 |
| 20260508222314 | 23 | 331 | 19.3 | 29.0 | 0.00 | 0.00 | 0.00 | 39 | 1011.6 |
| 20260508221424 | 22 | 321 | 11.3 | 25.7 | 0.00 | 0.00 | 0.00 | 38 | 1011.8 |
| 20260508221317 | 22 | 310 | 6.4 | 25.7 | 0.00 | 0.00 | 0.00 | 36 | 1011.8 |
| 20260508220429 | 22 | 327 | 11.3 | 24.1 | 0.00 | 0.00 | 0.00 | 37 | 1011.9 |
| 20260508220319 | 22 | 329 | 12.9 | 24.1 | 0.00 | 0.00 | 0.00 | 37 | 1011.9 |
| 20260508215411 | 22 | 9 | 20.9 | 29.0 | 0.00 | 0.00 | 0.00 | 40 | 1012.0 |
| 20260508215328 | 22 | 350 | 19.3 | 29.0 | 0.00 | 0.00 | 0.00 | 40 | 1012.0 |
| 20260508214420 | 22 | 355 | 11.3 | 32.2 | 0.00 | 0.00 | 0.00 | 43 | 1012.1 |
| 20260508214313 | 22 | 5 | 9.7 | 32.2 | 0.00 | 0.00 | 0.00 | 44 | 1012.1 |
| 20260508213425 | 21 | 309 | 16.1 | 24.1 | 0.00 | 0.00 | 0.00 | 40 | 1012.3 |
| 20260508213317 | 21 | 349 | 12.9 | 24.1 | 0.00 | 0.00 | 0.00 | 41 | 1012.2 |
| 20260508212429 | 22 | 17 | 12.9 | 29.0 | 0.00 | 0.00 | 0.00 | 41 | 1012.4 |
| 20260508212320 | 22 | 61 | 11.3 | 29.0 | 0.00 | 0.00 | 0.00 | 41 | 1012.4 |
| 20260508211412 | 22 | 355 | 17.7 | 33.8 | 0.00 | 0.00 | 0.00 | 40 | 1012.4 |
| 20260508211345 | 22 | 355 | 19.3 | 33.8 | 0.00 | 0.00 | 0.00 | 40 | 1012.4 |
| 20260508210436 | 22 | 24 | 14.5 | 27.4 | 0.00 | 0.00 | 0.00 | 39 | 1012.3 |
| 20260508210331 | 22 | 49 | 16.1 | 27.4 | 0.00 | 0.00 | 0.00 | 40 | 1012.3 |
| 20260508205420 | 22 | 321 | 24.1 | 38.6 | 0.00 | 0.00 | 0.00 | 40 | 1012.5 |
| 20260508205313 | 22 | 327 | 20.9 | 38.6 | 0.00 | 0.00 | 0.00 | 39 | 1012.5 |
| 20260508204423 | 23 | 311 | 20.9 | 32.2 | 0.00 | 0.00 | 0.00 | 39 | 1012.6 |
| 20260508204315 | 23 | 327 | 22.5 | 32.2 | 0.00 | 0.00 | 0.00 | 38 | 1012.6 |
| 20260508203427 | 22 | 24 | 19.3 | 32.2 | 0.00 | 0.00 | 0.00 | 42 | 1012.6 |
| 20260508203320 | 22 | 333 | 16.1 | 32.2 | 0.00 | 0.00 | 0.00 | 42 | 1012.6 |
| 20260508202430 | 21 | 331 | 24.1 | 33.8 | 0.00 | 0.00 | 0.00 | 40 | 1012.7 |
| 20260508202327 | 21 | 331 | 24.1 | 30.6 | 0.00 | 0.00 | 0.00 | 39 | 1012.7 |
| 20260508201418 | 22 | 315 | 22.5 | 33.8 | 0.00 | 0.00 | 0.00 | 39 | 1012.8 |
| 20260508201352 | 22 | 332 | 24.1 | 33.8 | 0.00 | 0.00 | 0.00 | 39 | 1012.8 |
| 20260508200420 | 22 | 318 | 22.5 | 32.2 | 0.00 | 0.00 | 0.00 | 41 | 1012.8 |
| 20260508200313 | 22 | 323 | 17.7 | 30.6 | 0.00 | 0.00 | 0.00 | 41 | 1012.7 |
| 20260508195424 | 22 | 336 | 22.5 | 38.6 | 0.00 | 0.00 | 0.00 | 41 | 1012.8 |
| 20260508195317 | 22 | 25 | 22.5 | 41.8 | 0.00 | 0.00 | 0.00 | 41 | 1012.8 |
| 20260508194428 | 22 | 335 | 29.0 | 41.8 | 0.00 | 0.00 | 0.00 | 39 | 1012.9 |
| 20260508194317 | 22 | 328 | 24.1 | 32.2 | 0.00 | 0.00 | 0.00 | 41 | 1012.9 |
| 20260508193450 | 22 | 360 | 22.5 | 35.4 | 0.00 | 0.00 | 0.00 | 41 | 1012.9 |
| 20260508193326 | 22 | 336 | 20.9 | 35.4 | 0.00 | 0.00 | 0.00 | 41 | 1012.9 |
| 20260508192415 | 22 | 309 | 24.1 | 32.2 | 0.00 | 0.00 | 0.00 | 41 | 1012.9 |
| 20260508192327 | 22 | 304 | 24.1 | 32.2 | 0.00 | 0.00 | 0.00 | 41 | 1012.9 |
| 20260508191416 | 22 | 342 | 27.4 | 40.2 | 0.00 | 0.00 | 0.00 | 43 | 1012.9 |
| 20260508191326 | 22 | 328 | 20.9 | 38.6 | 0.00 | 0.00 | 0.00 | 43 | 1012.9 |
| 20260508190416 | 22 | 335 | 24.1 | 35.4 | 0.00 | 0.00 | 0.00 | 41 | 1012.8 |
| 20260508190327 | 22 | 308 | 24.1 | 35.4 | 0.00 | 0.00 | 0.00 | 42 | 1012.9 |
| 20260508185419 | 21 | 31 | 16.1 | 33.8 | 0.00 | 0.00 | 0.00 | 42 | 1012.9 |
| 20260508185315 | 21 | 36 | 12.9 | 33.8 | 0.00 | 0.00 | 0.00 | 41 | 1012.9 |
| 20260508184445 | 21 | 323 | 14.5 | 33.8 | 0.00 | 0.00 | 0.00 | 41 | 1013.0 |
| 20260508184317 | 21 | 330 | 17.7 | 37.0 | 0.00 | 0.00 | 0.00 | 41 | 1013.0 |
| 20260508183431 | 21 | 9 | 25.7 | 37.0 | 0.00 | 0.00 | 0.00 | 42 | 1013.1 |
| 20260508183324 | 21 | 324 | 25.7 | 32.2 | 0.00 | 0.00 | 0.00 | 43 | 1013.1 |
| 20260508182436 | 21 | 13 | 17.7 | 37.0 | 0.00 | 0.00 | 0.00 | 44 | 1013.1 |
| 20260508182325 | 21 | 49 | 17.7 | 37.0 | 0.00 | 0.00 | 0.00 | 43 | 1013.1 |
| 20260508181435 | 21 | 5 | 17.7 | 32.2 | 0.00 | 0.00 | 0.00 | 44 | 1013.2 |
| 20260508181326 | 21 | 342 | 17.7 | 32.2 | 0.00 | 0.00 | 0.00 | 43 | 1013.1 |
| 20260508180412 | 21 | 17 | 22.5 | 35.4 | 0.00 | 0.00 | 0.00 | 44 | 1013.4 |
| 20260508180329 | 21 | 37 | 24.1 | 35.4 | 0.00 | 0.00 | 0.00 | 44 | 1013.4 |
| 20260508175420 | 21 | 325 | 22.5 | 38.6 | 0.00 | 0.00 | 0.00 | 44 | 1013.5 |
| 20260508175313 | 20 | 355 | 27.4 | 38.6 | 0.00 | 0.00 | 0.00 | 44 | 1013.5 |
| 20260508174422 | 20 | 44 | 20.9 | 41.8 | 0.00 | 0.00 | 0.00 | 44 | 1013.4 |
| 20260508174316 | 20 | 9 | 20.9 | 41.8 | 0.00 | 0.00 | 0.00 | 44 | 1013.4 |
| 20260508173427 | 20 | 19 | 17.7 | 35.4 | 0.00 | 0.00 | 0.00 | 46 | 1013.5 |
| 20260508173321 | 20 | 355 | 17.7 | 38.6 | 0.00 | 0.00 | 0.00 | 46 | 1013.6 |
| 20260508172412 | 19 | 355 | 20.9 | 32.2 | 0.00 | 0.00 | 0.00 | 45 | 1013.7 |
| 20260508172345 | 19 | 340 | 17.7 | 32.2 | 0.00 | 0.00 | 0.00 | 47 | 1013.7 |
| 20260508171414 | 20 | 340 | 27.4 | 43.5 | 0.00 | 0.00 | 0.00 | 45 | 1013.8 |
| 20260508171312 | 20 | 331 | 27.4 | 43.5 | 0.00 | 0.00 | 0.00 | 45 | 1013.8 |
| 20260508170423 | 19 | 5 | 19.3 | 40.2 | 0.00 | 0.00 | 0.00 | 48 | 1013.8 |
| 20260508170316 | 19 | 14 | 17.7 | 40.2 | 0.00 | 0.00 | 0.00 | 48 | 1013.7 |
| 20260508165445 | 18 | 355 | 24.1 | 41.8 | 0.00 | 0.00 | 0.00 | 50 | 1013.6 |
| 20260508165317 | 18 | 344 | 25.7 | 41.8 | 0.00 | 0.00 | 0.00 | 49 | 1013.5 |
| 20260508164428 | 19 | 5 | 30.6 | 43.5 | 0.00 | 0.00 | 0.00 | 46 | 1013.4 |
| 20260508164321 | 19 | 360 | 32.2 | 43.5 | 0.00 | 0.00 | 0.00 | 47 | 1013.4 |
| 20260508163413 | 19 | 340 | 30.6 | 43.5 | 0.00 | 0.00 | 0.00 | 47 | 1013.4 |
| 20260508163326 | 19 | 338 | 30.6 | 43.5 | 0.00 | 0.00 | 0.00 | 48 | 1013.3 |
| 20260508162438 | 19 | 355 | 25.7 | 45.1 | 0.00 | 0.00 | 0.00 | 53 | 1013.4 |
| 20260508162313 | 18 | 28 | 25.7 | 46.7 | 0.00 | 0.00 | 0.00 | 52 | 1013.4 |
| 20260508161423 | 18 | 355 | 29.0 | 45.1 | 0.00 | 0.00 | 0.00 | 52 | 1013.3 |
| 20260508161316 | 18 | 11 | 32.2 | 43.5 | 0.00 | 0.00 | 0.00 | 53 | 1013.3 |
| 20260508160447 | 18 | 5 | 30.6 | 45.1 | 0.00 | 0.00 | 0.00 | 53 | 1013.3 |
| 20260508160318 | 18 | 333 | 29.0 | 45.1 | 0.00 | 0.00 | 0.00 | 55 | 1013.3 |
| 20260508155430 | 18 | 15 | 32.2 | 46.7 | 0.00 | 0.00 | 0.00 | 55 | 1013.3 |
| 20260508155322 | 18 | 350 | 32.2 | 46.7 | 0.00 | 0.00 | 0.00 | 56 | 1013.4 |
| 20260508154413 | 18 | 360 | 27.4 | 41.8 | 0.00 | 0.00 | 0.00 | 56 | 1013.4 |
| 20260508154324 | 18 | 346 | 29.0 | 41.8 | 0.00 | 0.00 | 0.00 | 56 | 1013.4 |
| 20260508153415 | 17 | 324 | 25.7 | 40.2 | 0.00 | 0.00 | 0.00 | 57 | 1013.4 |
| 20260508153313 | 17 | 319 | 24.1 | 40.2 | 0.00 | 0.00 | 0.00 | 57 | 1013.4 |
| 20260508152424 | 17 | 355 | 30.6 | 41.8 | 0.00 | 0.00 | 0.00 | 57 | 1013.5 |
| 20260508152315 | 17 | 343 | 29.0 | 41.8 | 0.00 | 0.00 | 0.00 | 57 | 1013.4 |
| 20260508151427 | 17 | 336 | 27.4 | 40.2 | 0.00 | 0.00 | 0.00 | 60 | 1013.4 |
| 20260508151319 | 17 | 335 | 25.7 | 40.2 | 0.00 | 0.00 | 0.00 | 62 | 1013.4 |
| 20260508150430 | 16 | 328 | 25.7 | 40.2 | 0.00 | 0.00 | 0.00 | 62 | 1013.4 |
| 20260508150322 | 16 | 315 | 25.7 | 40.2 | 0.00 | 0.00 | 0.00 | 63 | 1013.4 |
| 20260508145413 | 16 | 351 | 29.0 | 40.2 | 0.00 | 0.03 | 0.00 | 60 | 1013.4 |
| 20260508145328 | 16 | 345 | 32.2 | 40.2 | 0.00 | 0.03 | 0.00 | 60 | 1013.4 |
| 20260508144419 | 16 | 11 | 30.6 | 38.6 | 0.00 | 0.03 | 0.00 | 62 | 1013.3 |
| 20260508144312 | 16 | 9 | 30.6 | 38.6 | 0.00 | 0.03 | 0.00 | 63 | 1013.3 |
| 20260508143421 | 15 | 346 | 25.7 | 33.8 | 0.00 | 0.03 | 0.00 | 67 | 1013.3 |
| 20260508143315 | 15 | 360 | 22.5 | 33.8 | 0.00 | 0.03 | 0.00 | 69 | 1013.3 |
| 20260508142444 | 14 | 348 | 24.1 | 33.8 | 0.00 | 0.03 | 0.00 | 68 | 1013.2 |
| 20260508142315 | 14 | 5 | 22.5 | 33.8 | 0.00 | 0.03 | 0.00 | 68 | 1013.1 |
| 20260508141448 | 15 | 319 | 25.7 | 38.6 | 0.00 | 0.03 | 0.00 | 68 | 1013.2 |
| 20260508141339 | 15 | 325 | 24.1 | 38.6 | 0.00 | 0.03 | 0.00 | 67 | 1013.2 |
| 20260508140409 | 15 | 27 | 25.7 | 38.6 | 0.00 | 0.03 | 0.00 | 68 | 1013.3 |
| 20260508140326 | 15 | 360 | 25.7 | 38.6 | 0.00 | 0.03 | 0.00 | 68 | 1013.3 |
| 20260508135418 | 15 | 339 | 22.5 | 38.6 | 0.00 | 0.03 | 0.00 | 70 | 1013.2 |
| 20260508135311 | 14 | 339 | 22.5 | 38.6 | 0.00 | 0.03 | 0.00 | 69 | 1013.2 |
| 20260508134424 | 14 | 335 | 24.1 | 35.4 | 0.00 | 0.03 | 0.00 | 70 | 1013.0 |
| 20260508134336 | 14 | 331 | 27.4 | 35.4 | 0.00 | 0.03 | 0.00 | 71 | 1013.1 |
| 20260508133427 | 13 | 340 | 22.5 | 33.8 | 0.00 | 0.03 | 0.00 | 73 | 1013.0 |
| 20260508133320 | 13 | 26 | 22.5 | 33.8 | 0.00 | 0.03 | 0.00 | 73 | 1012.9 |
| 20260508132409 | 13 | 339 | 25.7 | 35.4 | 0.00 | 0.03 | 0.00 | 75 | 1012.8 |
| 20260508132322 | 12 | 329 | 25.7 | 35.4 | 0.00 | 0.03 | 0.00 | 75 | 1012.8 |
| 20260508131419 | 12 | 329 | 20.9 | 29.0 | 0.00 | 0.03 | 0.00 | 78 | 1012.7 |
| 20260508131311 | 12 | 332 | 22.5 | 29.0 | 0.00 | 0.03 | 0.00 | 78 | 1012.7 |
| 20260508130423 | 11 | 340 | 19.3 | 27.4 | 0.00 | 0.03 | 0.00 | 80 | 1012.5 |
| 20260508130333 | 11 | 342 | 19.3 | 27.4 | 0.00 | 0.03 | 0.00 | 80 | 1012.5 |
| 20260508125423 | 11 | 335 | 17.7 | 24.1 | 0.00 | 0.03 | 0.00 | 82 | 1012.3 |
| 20260508125336 | 11 | 315 | 17.7 | 24.1 | 0.00 | 0.03 | 0.00 | 82 | 1012.3 |
| 20260508124427 | 11 | 355 | 17.7 | 24.1 | 0.00 | 0.03 | 0.00 | 83 | 1012.2 |
| 20260508124320 | 11 | 329 | 16.1 | 24.1 | 0.00 | 0.03 | 0.00 | 83 | 1012.1 |
| 20260508123412 | 11 | 344 | 17.7 | 24.1 | 0.00 | 0.03 | 0.00 | 84 | 1011.9 |
| 20260508123312 | 11 | 332 | 16.1 | 20.9 | 0.00 | 0.03 | 0.00 | 84 | 1011.9 |
| 20260508122420 | 11 | 336 | 12.9 | 19.3 | 0.00 | 0.03 | 0.00 | 84 | 1011.7 |
| 20260508122331 | 11 | 333 | 14.5 | 19.3 | 0.00 | 0.03 | 0.00 | 84 | 1011.7 |
| 20260508121442 | 10 | 331 | 14.5 | 20.9 | 0.00 | 0.03 | 0.00 | 84 | 1011.5 |
| 20260508121313 | 10 | 340 | 14.5 | 20.9 | 0.00 | 0.03 | 0.00 | 85 | 1011.5 |
| 20260508120423 | 10 | 329 | 9.7 | 16.1 | 0.00 | 0.03 | 0.00 | 84 | 1011.3 |
| 20260508120316 | 10 | 344 | 8.0 | 16.1 | 0.00 | 0.03 | 0.00 | 84 | 1011.4 |
| 20260508115408 | 10 | 329 | 9.7 | 17.7 | 0.00 | 0.03 | 0.00 | 82 | 1011.4 |
| 20260508115320 | 10 | 12 | 11.3 | 17.7 | 0.00 | 0.03 | 0.00 | 82 | 1011.3 |
| 20260508114412 | 11 | 22 | 14.5 | 19.3 | 0.00 | 0.03 | 0.00 | 81 | 1011.1 |
| 20260508114308 | 11 | 348 | 16.1 | 19.3 | 0.00 | 0.03 | 0.00 | 81 | 1011.0 |
| 20260508113421 | 11 | 319 | 16.1 | 22.5 | 0.00 | 0.03 | 0.00 | 79 | 1011.0 |
| 20260508113334 | 11 | 360 | 16.1 | 22.5 | 0.00 | 0.03 | 0.00 | 79 | 1011.0 |
| 20260508112424 | 12 | 337 | 16.1 | 22.5 | 0.00 | 0.03 | 0.00 | 77 | 1010.9 |
| 20260508112317 | 12 | 24 | 16.1 | 22.5 | 0.00 | 0.03 | 0.00 | 77 | 1010.8 |
| 20260508111428 | 12 | 348 | 14.5 | 24.1 | 0.00 | 0.03 | 0.00 | 76 | 1010.8 |
| 20260508111320 | 12 | 351 | 12.9 | 27.4 | 0.00 | 0.03 | 0.00 | 76 | 1010.7 |
| 20260508110411 | 12 | 34 | 17.7 | 29.0 | 0.00 | 0.03 | 0.00 | 76 | 1010.8 |
| 20260508110309 | 12 | 355 | 19.3 | 29.0 | 0.00 | 0.03 | 0.00 | 76 | 1010.8 |
| 20260508105421 | 12 | 355 | 17.7 | 22.5 | 0.00 | 0.03 | 0.00 | 77 | 1010.6 |
| 20260508105314 | 12 | 355 | 19.3 | 22.5 | 0.00 | 0.03 | 0.00 | 77 | 1010.7 |
| 20260508104443 | 12 | 38 | 11.3 | 16.1 | 0.00 | 0.03 | 0.00 | 76 | 1010.3 |
| 20260508104313 | 12 | 5 | 11.3 | 16.1 | 0.00 | 0.03 | 0.00 | 76 | 1010.2 |
| 20260508103425 | 12 | 360 | 9.7 | 14.5 | 0.00 | 0.03 | 0.00 | 76 | 1010.1 |
| 20260508103319 | 12 | 42 | 8.0 | 22.5 | 0.00 | 0.03 | 0.00 | 76 | 1010.2 |
| 20260508102410 | 12 | 347 | 12.9 | 22.5 | 0.00 | 0.03 | 0.00 | 78 | 1010.3 |
| 20260508102322 | 12 | 342 | 11.3 | 17.7 | 0.00 | 0.03 | 0.00 | 78 | 1010.4 |
| 20260508101416 | 12 | 360 | 9.7 | 12.9 | 0.00 | 0.03 | 0.00 | 76 | 1010.4 |
| 20260508101328 | 12 | 360 | 9.7 | 12.9 | 0.00 | 0.03 | 0.00 | 76 | 1010.4 |
| 20260508100416 | 13 | 5 | 8.0 | 14.5 | 0.00 | 0.03 | 0.00 | 74 | 1010.4 |
| 20260508100328 | 13 | 23 | 8.0 | 19.3 | 0.00 | 0.03 | 0.00 | 74 | 1010.4 |
| 20260508095420 | 13 | 332 | 14.5 | 24.1 | 0.00 | 0.03 | 0.00 | 73 | 1010.7 |
| 20260508095312 | 13 | 333 | 16.1 | 24.1 | 0.00 | 0.03 | 0.00 | 73 | 1010.7 |
| 20260508094421 | 13 | 14 | 11.3 | 30.6 | 0.00 | 0.03 | 0.00 | 73 | 1010.7 |
| 20260508094311 | 13 | 5 | 16.1 | 30.6 | 0.00 | 0.03 | 0.00 | 73 | 1010.7 |
| 20260508093442 | 13 | 24 | 24.1 | 33.8 | 0.00 | 0.03 | 0.00 | 72 | 1010.8 |
| 20260508093318 | 13 | 13 | 24.1 | 33.8 | 0.00 | 0.03 | 0.00 | 72 | 1010.9 |
| 20260508092423 | 13 | 355 | 20.9 | 25.7 | 0.00 | 0.03 | 0.00 | 72 | 1011.0 |
| 20260508092317 | 13 | 360 | 20.9 | 25.7 | 0.00 | 0.03 | 0.00 | 72 | 1011.0 |
| 20260508091409 | 12 | 355 | 17.7 | 24.1 | 0.00 | 0.03 | 0.00 | 72 | 1010.8 |
| 20260508091322 | 13 | 350 | 14.5 | 20.9 | 0.00 | 0.03 | 0.00 | 72 | 1010.8 |
| 20260508090434 | 13 | 355 | 11.3 | 27.4 | 0.00 | 0.03 | 0.00 | 70 | 1010.8 |
| 20260508090326 | 13 | 62 | 11.3 | 27.4 | 0.00 | 0.03 | 0.00 | 70 | 1010.8 |
| 20260508085418 | 13 | 355 | 24.1 | 35.4 | 0.00 | 0.03 | 0.00 | 68 | 1010.8 |
| 20260508085311 | 13 | 39 | 22.5 | 35.4 | 0.00 | 0.03 | 0.00 | 68 | 1010.7 |
| 20260508084421 | 13 | 355 | 27.4 | 41.8 | 0.00 | 0.03 | 0.00 | 68 | 1010.8 |
| 20260508084319 | 13 | 349 | 30.6 | 41.8 | 0.00 | 0.03 | 0.00 | 68 | 1010.8 |
| 20260508083410 | 13 | 348 | 29.0 | 37.0 | 0.00 | 0.03 | 0.00 | 69 | 1010.8 |
| 20260508083323 | 13 | 346 | 27.4 | 37.0 | 0.00 | 0.03 | 0.00 | 69 | 1010.9 |
| 20260508082414 | 13 | 342 | 17.7 | 27.4 | 0.00 | 0.03 | 0.00 | 70 | 1011.3 |
| 20260508082346 | 13 | 309 | 17.7 | 27.4 | 0.00 | 0.03 | 0.00 | 70 | 1011.3 |
| 20260508081417 | 12 | 338 | 19.3 | 27.4 | 0.00 | 0.03 | 0.00 | 71 | 1011.4 |
| 20260508081309 | 12 | 325 | 19.3 | 27.4 | 0.00 | 0.03 | 0.00 | 71 | 1011.4 |
| 20260508080421 | 12 | 335 | 16.1 | 22.5 | 0.00 | 0.03 | 0.00 | 73 | 1011.3 |
| 20260508080318 | 12 | 328 | 17.7 | 24.1 | 0.00 | 0.03 | 0.00 | 73 | 1011.3 |
| 20260508075411 | 12 | 360 | 17.7 | 22.5 | 0.00 | 0.03 | 0.00 | 74 | 1011.4 |
| 20260508075323 | 12 | 329 | 17.7 | 22.5 | 0.00 | 0.03 | 0.00 | 74 | 1011.4 |
| 20260508074415 | 11 | 351 | 16.1 | 20.9 | 0.00 | 0.03 | 0.00 | 75 | 1011.5 |
| 20260508074325 | 11 | 343 | 16.1 | 20.9 | 0.00 | 0.03 | 0.00 | 75 | 1011.4 |
| 20260508073436 | 11 | 355 | 11.3 | 17.7 | 0.00 | 0.03 | 0.00 | 76 | 1011.3 |
| 20260508073310 | 11 | 5 | 9.7 | 17.7 | 0.00 | 0.03 | 0.00 | 76 | 1011.3 |
| 20260508072421 | 11 | 349 | 9.7 | 12.9 | 0.00 | 0.03 | 0.00 | 75 | 1011.1 |
| 20260508072314 | 11 | 9 | 8.0 | 12.9 | 0.00 | 0.03 | 0.00 | 75 | 1011.1 |
| 20260508071410 | 11 | 351 | 8.0 | 12.9 | 0.00 | 0.03 | 0.00 | 75 | 1011.2 |
| 20260508071323 | 11 | 9 | 8.0 | 12.9 | 0.00 | 0.03 | 0.00 | 75 | 1011.2 |
| 20260508070415 | 11 | 355 | 6.4 | 9.7 | 0.00 | 0.03 | 0.00 | 75 | 1011.2 |
| 20260508070328 | 11 | 347 | 6.4 | 9.7 | 0.00 | 0.03 | 0.00 | 75 | 1011.2 |
| 20260508065418 | 11 | 335 | 6.4 | 12.9 | 0.00 | 0.03 | 0.00 | 75 | 1011.4 |
| 20260508065311 | 11 | 355 | 6.4 | 12.9 | 0.00 | 0.03 | 0.00 | 75 | 1011.3 |
| 20260508064422 | 12 | 336 | 11.3 | 16.1 | 0.00 | 0.03 | 0.00 | 73 | 1011.4 |
| 20260508064335 | 11 | 355 | 11.3 | 17.7 | 0.00 | 0.03 | 0.00 | 73 | 1011.4 |
| 20260508063426 | 12 | 350 | 14.5 | 20.9 | 0.00 | 0.03 | 0.00 | 72 | 1011.5 |
| 20260508063323 | 12 | 322 | 12.9 | 20.9 | 0.00 | 0.03 | 0.00 | 73 | 1011.5 |
| 20260508062415 | 12 | 32 | 8.0 | 9.7 | 0.00 | 0.03 | 0.00 | 71 | 1011.4 |
| 20260508062328 | 12 | 37 | 8.0 | 9.7 | 0.00 | 0.03 | 0.00 | 71 | 1011.4 |
| 20260508061419 | 12 | 355 | 8.0 | 11.3 | 0.00 | 0.03 | 0.00 | 70 | 1011.5 |
| 20260508061312 | 12 | 338 | 8.0 | 12.9 | 0.00 | 0.03 | 0.00 | 70 | 1011.5 |
| 20260508060424 | 12 | 340 | 11.3 | 17.7 | 0.00 | 0.03 | 0.00 | 67 | 1011.7 |
| 20260508060315 | 12 | 331 | 11.3 | 19.3 | 0.00 | 0.03 | 0.00 | 67 | 1011.7 |
| 20260508055446 | 13 | 327 | 14.5 | 19.3 | 0.00 | 0.03 | 0.03 | 64 | 1011.7 |
| 20260508055315 | 13 | 350 | 11.3 | 19.3 | 0.00 | 0.03 | 0.03 | 64 | 1011.7 |
| 20260508054411 | 13 | 296 | 1.6 | 6.4 | 0.00 | 0.03 | 0.03 | 57 | 1011.3 |
| 20260508054343 | 13 | 202 | 1.6 | 3.2 | 0.00 | 0.03 | 0.03 | 55 | 1011.2 |
| 20260508053412 | 13 | 202 | 0.0 | 0.0 | 0.00 | 0.03 | 0.03 | 55 | 1011.1 |
| 20260508053327 | 13 | 202 | 0.0 | 0.0 | 0.00 | 0.03 | 0.03 | 55 | 1011.1 |
| 20260508052415 | 12 | 205 | 0.0 | 3.2 | 0.00 | 0.03 | 0.03 | 62 | 1011.1 |
| 20260508052328 | 12 | 205 | 0.0 | 3.2 | 0.00 | 0.03 | 0.03 | 61 | 1011.0 |